sat.trackr.live / text

‹ back to catalog

ONEWEB-0286

NORAD 49076 · 2021-075B

PAYLOAD ACTIVE UNKNOWN

§ Identity

Operator
Country
UK
Launch date
2021-08-21
Launch site
TYMSC
Launch vehicle
Mass (kg)
RCS (m²)

Purposes: comms

External: N2YO · Heavens-Above · Gunter

§ Orbital elements

Epoch: 2026-09-14T22:13:22.899936Z

Period
109.72 min
Inclination
87.8980°
Eccentricity
0.0001996
Mean motion
13.12441408 rev/d
Perigee alt
1,212.2 km
Apogee alt
1,215.2 km
Semi-major
7,591.9 km
B*
-1.0402e-3
RAAN
332.8567°
Arg perigee
105.3097°
Mean anomaly
254.8253°
Rev number
24,633

§ Raw data

ONEWEB-02861 49076U 21075B   26257.92595949 -.00000361  00000+0 -10402-2 0  99952 49076  87.8980 332.8567 0001996 105.3097 254.8253 13.12441408246337

JSON: /api/v1/satellites/49076 · /tle

For live sub-satellite position, see the globe view (requires WebGL).

§ Visibility from observer

Set your observer location to see the next 7 days of passes ≥ 10°. The values pass through the URL so the page stays shareable.

No JS? Fill the form by hand. The geolocation button needs JavaScript.